[Date Prev][Date Next][Thread Prev][Thread Next] - [Date Index][Thread Index][Author Index]
2 Line ISS Keps 8-23
- Subject: [sarex] 2 Line ISS Keps 8-23
- From: "Dave Larsen PhD" <doc@xxxxxxxxxxx>
- Date: Thu, 23 Aug 2001 10:44:13 -0700
ISS
1 25544U 98067A 01235.39217593 -.00011752 00000-0 -15253-3 0 3766
2 25544 51.6403 110.1025 0008163 25.7735 327.0520 15.57049730157562
----
Via the sarex mailing list at AMSAT.ORG courtesy of AMSAT-NA.
To unsubscribe, send "unsubscribe sarex" to Majordomo@amsat.org
AMSAT Home